Regional Weather Roundup
Issued by NWS

Home | Current Version | Previous Version | Text Only | Print | Product List | Glossary On
Versions: 1 2 3 4 5 6 7 8 9 10 11 12 13 14 15 16 17 18 19 20 21 22 23 24 25 26 27 28 29 30 31 32 33 34 35 36 37 38 39 40 41 42 43 44 45 46 47 48 49 50
000
ASUS43 KMKX 071359
RWRWI

WISCONSIN REGIONAL WEATHER ROUNDUP
NATIONAL WEATHER SERVICE MILWAUKEE/SULLIVAN WI
800 AM CST SUN FEB 07 2016

NOTE: "FAIR" INDICATES FEW OR NO CLOUDS BELOW 12,000 FEET WITH NO
SIGNIFICANT WEATHER AND/OR OBSTRUCTIONS TO VISIBILITY.

WIZ001-002-006>008-014>016-023>028-071500-
NORTHWEST WISCONSIN

CITY           SKY/WX    TMP DP  RH WIND       PRES   REMARKS
SUPERIOR ARPT  RAIN      34  32  93 SW8       29.47F WCI  27
ASHLAND        LGT SNOW  32  29  88 S8        29.51F FOG     WCI  25
HAYWARD        CLOUDY    32  28  85 SW10      29.52S WCI  24
SIREN          CLOUDY    35  31  85 SW12      29.53F WCI  27
CUMBERLAND     CLOUDY    32  30  93 SW13      29.55F WCI  22
RICE LAKE      CLOUDY    32  29  86 S5        29.58S WCI  28
CHETEK         CLOUDY    32  28  87 SW6       29.58S WCI  26
LADYSMITH      CLOUDY    32  30  91 S9        29.58S WCI  24
EAU CLAIRE     NOT AVBL
MENOMONIE      CLOUDY    33  29  84 SW8       29.61F WCI  26
NEW RICHMOND   CLOUDY    35  29  80 W14G21    29.58F WCI  25
OSCEOLA        CLOUDY    36  31  82 SW14G21   29.61S WCI  27
$$

WIZ003>005-009-010-017-018-071500-
NORTH CENTRAL WISCONSIN

CITY           SKY/WX    TMP DP  RH WIND       PRES   REMARKS
MANITOWISH WTR CLOUDY    29  29  99 S8        29.52F WCI  21
ARBOR VITAE    CLOUDY    32  30  92 S10       29.53F FOG     WCI  23
WOODRUFF       CLOUDY    32  30  92 S10       29.53F FOG     WCI  23
RHINELANDER    CLOUDY    30  27  88 SW9       29.55F WCI  22
EAGLE RIVER    CLOUDY    29  28  96 S6        29.54F FOG     WCI  23
LAND O LAKES   CLOUDY    30  28  95 S6        29.54R FOG     WCI  24
PHILLIPS       CLOUDY    30  28  93 SW12      29.54S WCI  21
TOMAHAWK       CLOUDY    29  28  93 S3        29.57F FOG
MEDFORD        CLOUDY    30  28  94 SW13      29.58F WCI  20
MERRILL        CLOUDY    31  29  93 SW7       29.60F WCI  24
$$

WIZ029-030-035-036-043>047-071500-
CENTRAL WISCONSIN

CITY           SKY/WX    TMP DP  RH WIND       PRES   REMARKS
WAUSAU         CLOUDY    32  28  85 SE5       29.59F WCI  27
MOSINEE        MOCLDY    30  28  93 S8        29.62F WCI  23
MARSHFIELD     CLEAR     29  24  82 SW8       29.60F WCI  21
STEVENS POINT  CLOUDY    29  27  91 SW6       29.65S WCI  23
WAUPACA        CLOUDY    35  29  80 S6        29.66F WCI  30
WAUTOMA        NOT AVBL
WISC RAPIDS    CLEAR     31  26  82 SW9       29.65F WCI  23
CAMP DOUGLAS   NOT AVBL
$$

WIZ011>013-019>022-031-037>040-048>050-071500-
NORTHEAST WISCONSIN

CITY           SKY/WX    TMP DP  RH WIND       PRES   REMARKS
ANTIGO         CLOUDY    30  28  94 SW12      29.60F WCI  20
SHAWANO        PTCLDY    34  30  85 SW3       29.65F
OCONTO         CLOUDY    35  31  84 S6        29.65F WCI  30
STURGEON BAY   MOCLDY    34  28  80 S8        29.69F WCI  27
GREEN BAY      CLOUDY    36  30  79 S10       29.66F WCI  28
MANITOWOC      NOT AVBL
APPLETON       MOCLDY    34  28  80 S10       29.65F WCI  26
CLINTONVILLE   PTCLDY    32  28  86 S6        29.66S WCI  26
OSHKOSH        CLOUDY    36  29  75 SW10      29.68F WCI  28
$$

WIZ032>034-041-042-053>061-071500-
SOUTHWEST WISCONSIN

CITY           SKY/WX    TMP DP  RH WIND       PRES   REMARKS
LA CROSSE      CLEAR     33  26  75 S12       29.69F WCI  24
SPARTA         CLEAR     33  28  85 SW3       29.69S
VIROQUA        CLEAR     31  28  88 SW10      29.69S WCI  22
BOSCOBEL       CLEAR     33  29  85 SW6       29.74F WCI  28
PRAIRIE DU CHI CLEAR     33  27  78 SW3       29.76S
PLATTEVILLE    CLOUDY    33  30  86 SW9       29.76S WCI  26
$$

WIZ056-057-062-063-064-067-068-071500-
SOUTH CENTRAL WISCONSIN

CITY           SKY/WX    TMP DP  RH WIND       PRES   REMARKS
REEDSBURG      CLEAR     34  29  82 SW8       29.70S WCI  27
BARABOO/DELLS  CLEAR     34  28  79 SW10      29.70R WCI  26
LONE ROCK      NOT AVBL
MINERAL POINT  CLOUDY    36  32  87 SW10      29.73F WCI  28
MADISON        PTCLDY    36  28  73 SW8       29.72F WCI  30
MIDDLETON      PTCLDY    37  30  74 SW16G23   29.71F WCI  28
WATERTOWN      CLOUDY    36  31  81 SW12      29.73S WCI  28
MONROE         CLOUDY    36  30  80 SW22G28   29.75R WCI  24
JANESVILLE     MOCLDY    37  30  75 SW16      29.77S WCI  28
$$

WIZ051-052-058>065-066-070>072-071500-
SOUTHEAST WISCONSIN

CITY           SKY/WX    TMP DP  RH WIND       PRES   REMARKS
MILWAUKEE      CLOUDY    38  28  67 SW18G30   29.74F WCI  28
WAUKESHA       MOCLDY    36  28  75 SW12G17   29.74F WCI  27
MILWAUKEE/TIMM MOCLDY    37  27  65 SW15      29.75F WCI  28
RACINE         CLOUDY    39  27  62 SW13G23   29.78F WCI  31
BURLINGTON     CLOUDY    35  28  76 S16       29.76F WCI  25
KENOSHA        CLOUDY    39  28  64 SW18G25   29.77F WCI  30
FOND DU LAC    MOCLDY    37  29  72 SW16      29.68F WCI  28
SHEBOYGAN      CLOUDY    37  29  72 SW12      29.70F WCI  29
WEST BEND      CLOUDY    36  30  80 SW9G16    29.72F WCI  29
JUNEAU         CLOUDY    35  30  81 S15G21    29.72S WCI  25
$$

LSZ147-162-071500-
LAKE SUPERIOR

STATION/POSITION TIME  TEMP    WIND        PRES    WAVE
                       AIR SEA DIR/SP/G            HT/PER
                 (UTC) (F)     (DEG/KT/KT) (MB)    (FT/S)
DEVILS ISLAND    1300   32     180/ 10/ 12  999.5F
SAXON HARBOR     1300   34                 1000.0R
$$

LMZ867-665-643>646-071500-
LAKE MICHIGAN

STATION/POSITION TIME  TEMP    WIND        PRES    WAVE
                       AIR SEA DIR/SP/G            HT/PER
                 (UTC) (F)     (DEG/KT/KT) (MB)    (FT/S)
CHAMBERS ISLAND  1300   35     160/  6/ 12 1005.4F
ALGOMA LAKESHORE 1311          220/ 19/ 21   N/A
KEWAUNEE LAKESHO 1300   35     190/  9/ 12 1005.2F
SHEBOYGAN LAKESH 1300   36     190/ 12/ 13 1007.4F
PORT WASHINGTON  1300   38     220/  4/ 11 1008.1F
MILWAUKEE LAKESH 1310   39     220/ 16/ 19   N/A
KENOSHA   LAKESH 1300   39     200/ 12/ 16 1009.1F
$$

TC  - TEMPERATURE IN CELSIUS
VSB - VISIBILITY IN STATUTE MILES
WCI - WIND CHILL INDEX
HX  - HEAT INDEX




USA.gov is the U.S. government's official web portal to all federal, state and local government web resources and services.